,,,PA_Meas_PMT16A,,PR_Meas_QMR101_102,,RH_Meas_QMH101,,SR_Meas_QMS101,,TA_Meas_QMH101,,GenWind,,GenWind,
date,time,status,PA,status,PR,status,RH,status,SR,status,TA,status,DirAvg,status,SpdAvg,
2010-02-04, 00:00:04,VALID,1006.61,VALID,0,VALID,91.9662,VALID,0,VALID,24.383,VALID,331,VALID,0,
2010-02-04, 00:01:04,VALID,1006.62,VALID,0,VALID,92.0043,VALID,0,VALID,24.3636,VALID,331,VALID,0,
2010-02-04, 00:02:04,VALID,1006.61,VALID,0,VALID,92.0958,VALID,0,VALID,24.3422,VALID,331,VALID,0,
2010-02-04, 00:03:04,VALID,1006.6,VALID,0,VALID,92.1416,VALID,0,VALID,24.4043,VALID,331,VALID,0,
2010-02-04, 00:04:04,VALID,1006.6,VALID,0,VALID,92.2103,VALID,0,VALID,24.4043,VALID,331,VALID,0,
2010-02-04, 00:05:04,VALID,1006.59,VALID,0,VALID,92.3323,VALID,0,VALID,24.383,VALID,331,VALID,0,
2010-02-04, 00:06:04,VALID,1006.57,VALID,0,VALID,92.3705,VALID,0,VALID,24.3849,VALID,331,VALID,0,
2010-02-04, 00:07:04,VALID,1006.53,VALID,0,VALID,92.3629,VALID,0,VALID,24.3849,VALID,331,VALID,0,
2010-02-04, 00:08:04,VALID,1006.54,VALID,0,VALID,92.401,VALID,0.100563,VALID,24.3636,VALID,331,VALID,0.0238281,
2010-02-04, 00:09:04,VALID,1006.51,VALID,0,VALID,92.4773,VALID,0,VALID,24.3849,VALID,331,VALID,0.0257812,
2010-02-04, 00:10:04,VALID,1006.52,VALID,0,VALID,92.5383,VALID,0,VALID,24.3654,VALID,331,VALID,0,
2010-02-04, 00:11:04,VALID,1006.49,VALID,0,VALID,92.5993,VALID,0,VALID,24.3441,VALID,331,VALID,0.0472656,
2010-02-04, 00:12:04,VALID,1006.45,VALID,0,VALID,92.607,VALID,0,VALID,24.3459,VALID,331,VALID,0,
2010-02-04, 00:13:04,VALID,1006.45,VALID,0,VALID,92.6451,VALID,0,VALID,24.3459,VALID,331,VALID,0,
2010-02-04, 00:14:04,VALID,1006.44,VALID,0,VALID,92.6146,VALID,0,VALID,24.3246,VALID,331,VALID,0,
2010-02-04, 00:15:04,VALID,1006.47,VALID,0,VALID,92.6528,VALID,0,VALID,24.3459,VALID,331,VALID,0,
2010-02-04, 00:16:04,VALID,1006.45,VALID,0,VALID,92.729,VALID,0,VALID,24.3441,VALID,331,VALID,0,
2010-02-04, 00:17:04,VALID,1006.45,VALID,0,VALID,92.8053,VALID,0,VALID,24.3246,VALID,331,VALID,0,
2010-02-04, 00:18:04,VALID,1006.48,VALID,0,VALID,92.8664,VALID,0,VALID,24.3459,VALID,331,VALID,0,
2010-02-04, 00:19:04,VALID,1006.46,VALID,0,VALID,92.9121,VALID,0,VALID,24.3052,VALID,331,VALID,0.303125,
2010-02-04, 00:20:04,VALID,1006.49,VALID,0,VALID,92.9503,VALID,0,VALID,24.307,VALID,331,VALID,0,
2010-02-04, 00:21:04,VALID,1006.5,VALID,0,VALID,92.9808,VALID,0,VALID,24.2875,VALID,331,VALID,0,
2010-02-04, 00:22:04,VALID,1006.45,VALID,0,VALID,93.0037,VALID,0,VALID,24.2662,VALID,331,VALID,0.00195313,
2010-02-04, 00:23:04,VALID,1006.48,VALID,0,VALID,93.0266,VALID,0,VALID,24.2273,VALID,331,VALID,0.507422,
2010-02-04, 00:24:04,VALID,1006.45,VALID,0,VALID,93.0418,VALID,0,VALID,24.2273,VALID,331,VALID,0.380469,
2010-02-04, 00:25:04,VALID,1006.46,VALID,0,VALID,93.1105,VALID,0,VALID,24.2078,VALID,73,VALID,0.314844,
2010-02-04, 00:26:04,VALID,1006.47,VALID,0,VALID,93.2173,VALID,0,VALID,24.2273,VALID,73,VALID,0,
2010-02-04, 00:27:04,VALID,1006.46,VALID,0,VALID,93.2554,VALID,0.100563,VALID,24.2078,VALID,73,VALID,0.0707031,
2010-02-04, 00:28:04,VALID,1006.44,VALID,0,VALID,93.2936,VALID,0,VALID,24.2078,VALID,73,VALID,0.321875,
2010-02-04, 00:29:04,VALID,1006.42,VALID,0,VALID,93.347,VALID,0,VALID,24.2273,VALID,73,VALID,0.415625,
2010-02-04, 00:30:04,VALID,1006.43,VALID,0,VALID,93.3317,VALID,0.100563,VALID,24.2291,VALID,73,VALID,0.507422,
2010-02-04, 00:31:04,VALID,1006.4,VALID,0,VALID,93.2783,VALID,0.100563,VALID,24.2273,VALID,50,VALID,0.504687,
2010-02-04, 00:32:04,VALID,1006.42,VALID,0,VALID,93.2478,VALID,0.100563,VALID,24.2273,VALID,50,VALID,0.253516,
2010-02-04, 00:33:04,VALID,1006.38,VALID,0,VALID,93.2478,VALID,0,VALID,24.2273,VALID,50,VALID,0,
2010-02-04, 00:34:04,VALID,1006.37,VALID,0,VALID,93.2325,VALID,0,VALID,24.2291,VALID,50,VALID,0,
2010-02-04, 00:35:04,VALID,1006.36,VALID,0,VALID,93.2478,VALID,0,VALID,24.2273,VALID,50,VALID,0,
2010-02-04, 00:36:04,VALID,1006.35,VALID,0,VALID,93.2707,VALID,0,VALID,24.2273,VALID,50,VALID,0,
2010-02-04, 00:37:04,VALID,1006.32,VALID,0,VALID,93.2478,VALID,0,VALID,24.2097,VALID,50,VALID,0,
2010-02-04, 00:38:04,VALID,1006.31,VALID,0,VALID,93.2478,VALID,0,VALID,24.2078,VALID,50,VALID,0.0492188,
2010-02-04, 00:39:04,VALID,1006.25,VALID,0,VALID,93.2554,VALID,0,VALID,24.2078,VALID,50,VALID,0.116406,
2010-02-04, 00:40:04,VALID,1006.24,VALID,0,VALID,93.2859,VALID,0.100563,VALID,24.2291,VALID,50,VALID,0.000390625,
2010-02-04, 00:41:04,VALID,1006.24,VALID,0,VALID,93.2859,VALID,0,VALID,24.2078,VALID,50,VALID,0,
2010-02-04, 00:42:04,VALID,1006.2,VALID,0,VALID,93.2783,VALID,0,VALID,24.1884,VALID,50,VALID,0.213672,
2010-02-04, 00:43:04,VALID,1006.22,VALID,0,VALID,93.3012,VALID,0,VALID,24.1884,VALID,50,VALID,0,
2010-02-04, 00:44:04,VALID,1006.22,VALID,0,VALID,93.3165,VALID,0,VALID,24.1689,VALID,50,VALID,0.00429688,
2010-02-04, 00:45:04,VALID,1006.2,VALID,0,VALID,93.3012,VALID,0,VALID,24.1884,VALID,50,VALID,0.189844,
2010-02-04, 00:46:04,VALID,1006.19,VALID,0,VALID,93.3317,VALID,0,VALID,24.1884,VALID,47,VALID,0.502734,
2010-02-04, 00:47:04,VALID,1006.18,VALID,0,VALID,93.3241,VALID,0,VALID,24.1884,VALID,46,VALID,0.351953,
2010-02-04, 00:48:04,VALID,1006.15,VALID,0,VALID,93.3165,VALID,0,VALID,24.1689,VALID,46,VALID,0.0078125,
2010-02-04, 00:49:04,VALID,1006.15,VALID,0,VALID,93.3317,VALID,0,VALID,24.1902,VALID,46,VALID,0.341797,
2010-02-04, 00:50:04,VALID,1006.12,VALID,0,VALID,93.3165,VALID,0.100563,VALID,24.1494,VALID,46,VALID,0.327734,
2010-02-04, 00:51:04,VALID,1006.09,VALID,0,VALID,93.3699,VALID,0,VALID,24.1494,VALID,46,VALID,0.144141,
2010-02-04, 00:52:04,VALID,1006.08,VALID,0,VALID,93.3851,VALID,0,VALID,24.1513,VALID,46,VALID,0.0328125,
2010-02-04, 00:53:04,VALID,1006.05,VALID,0,VALID,93.4385,VALID,0.100563,VALID,24.13,VALID,46,VALID,0,
2010-02-04, 00:54:04,VALID,1006.05,VALID,0,VALID,93.4767,VALID,0.100563,VALID,24.13,VALID,46,VALID,0,
2010-02-04, 00:55:04,VALID,1006.02,VALID,0,VALID,93.5453,VALID,0,VALID,24.13,VALID,46,VALID,0.107422,
2010-02-04, 00:56:04,VALID,1006.03,VALID,0,VALID,93.553,VALID,0,VALID,24.1105,VALID,46,VALID,0,
2010-02-04, 00:57:04,VALID,1006.01,VALID,0,VALID,93.5758,VALID,0,VALID,24.1123,VALID,46,VALID,0,
2010-02-04, 00:58:04,VALID,1006.01,VALID,0,VALID,93.5682,VALID,0,VALID,24.091,VALID,34,VALID,0.534766,
2010-02-04, 00:59:04,VALID,1005.99,VALID,0,VALID,93.5453,VALID,0.100563,VALID,24.091,VALID,34,VALID,0.212109,
2010-02-04, 01:00:04,VALID,1005.95,VALID,0,VALID,93.553,VALID,0,VALID,24.0929,VALID,34,VALID,0.369922,
2010-02-04, 01:01:04,VALID,1005.95,VALID,0,VALID,93.5606,VALID,0,VALID,24.091,VALID,34,VALID,0,
2010-02-04, 01:02:04,VALID,1005.99,VALID,0,VALID,93.553,VALID,0.100563,VALID,24.0716,VALID,34,VALID,0.226563,
2010-02-04, 01:03:04,VALID,1005.96,VALID,0,VALID,93.5835,VALID,0,VALID,24.0716,VALID,34,VALID,0.177344,
2010-02-04, 01:04:04,VALID,1005.95,VALID,0,VALID,93.6292,VALID,0,VALID,24.0521,VALID,34,VALID,0.265625,
2010-02-04, 01:05:04,VALID,1005.94,VALID,0,VALID,93.6292,VALID,0,VALID,24.0734,VALID,33,VALID,0.469531,
2010-02-04, 01:06:04,VALID,1005.91,VALID,0,VALID,93.6674,VALID,0.100563,VALID,24.0521,VALID,31,VALID,0.242969,
2010-02-04, 01:07:04,VALID,1005.9,VALID,0,VALID,93.7284,VALID,0.100563,VALID,24.0521,VALID,31,VALID,0,
2010-02-04, 01:08:04,VALID,1005.9,VALID,0,VALID,93.7742,VALID,0,VALID,24.0521,VALID,31,VALID,0.223438,
2010-02-04, 01:09:04,VALID,1005.88,VALID,0,VALID,93.82,VALID,0,VALID,24.0521,VALID,30,VALID,0.09375,
2010-02-04, 01:10:04,VALID,1005.88,VALID,0,VALID,93.8123,VALID,0,VALID,24.0734,VALID,30,VALID,0,
2010-02-04, 01:11:04,VALID,1005.86,VALID,0,VALID,93.82,VALID,0,VALID,24.0521,VALID,30,VALID,0,
2010-02-04, 01:12:04,VALID,1005.84,VALID,0,VALID,93.7895,VALID,0.100563,VALID,24.0308,VALID,30,VALID,0,
2010-02-04, 01:13:04,VALID,1005.85,VALID,0,VALID,93.7742,VALID,0,VALID,24.0539,VALID,30,VALID,0,
2010-02-04, 01:14:04,VALID,1005.82,VALID,0,VALID,93.7818,VALID,0.100563,VALID,24.0132,VALID,30,VALID,0.127734,
2010-02-04, 01:15:04,VALID,1005.81,VALID,0,VALID,93.7437,VALID,0,VALID,24.0132,VALID,30,VALID,0.305859,
2010-02-04, 01:16:04,VALID,1005.79,VALID,0,VALID,93.7513,VALID,0,VALID,24.0132,VALID,30,VALID,0.452344,
2010-02-04, 01:17:04,VALID,1005.8,VALID,0,VALID,93.7589,VALID,0.100563,VALID,23.9724,VALID,30,VALID,0.519922,
2010-02-04, 01:18:04,VALID,1005.82,VALID,0,VALID,93.7818,VALID,0,VALID,23.9937,VALID,30,VALID,0.355469,
2010-02-04, 01:19:04,VALID,1005.79,VALID,0,VALID,93.8276,VALID,0,VALID,23.953,VALID,30,VALID,0.494141,
2010-02-04, 01:20:04,VALID,1005.81,VALID,0,VALID,93.8734,VALID,0,VALID,23.9548,VALID,30,VALID,0.392578,
2010-02-04, 01:21:04,VALID,1005.79,VALID,0,VALID,93.9191,VALID,0,VALID,23.9742,VALID,30,VALID,0.3625,
2010-02-04, 01:22:04,VALID,1005.78,VALID,0,VALID,94.0031,VALID,0.100563,VALID,23.9548,VALID,30,VALID,0.105859,
2010-02-04, 01:23:04,VALID,1005.76,VALID,0,VALID,94.0488,VALID,0,VALID,23.9548,VALID,30,VALID,0.347656,
2010-02-04, 01:24:04,VALID,1005.74,VALID,0,VALID,94.087,VALID,0,VALID,23.9353,VALID,30,VALID,0.437891,
2010-02-04, 01:25:04,VALID,1005.74,VALID,0,VALID,94.1099,VALID,0,VALID,23.9353,VALID,18,VALID,0.486328,
2010-02-04, 01:26:04,VALID,1005.71,VALID,0,VALID,94.1251,VALID,0,VALID,23.9353,VALID,18,VALID,0.282031,
2010-02-04, 01:27:04,VALID,1005.71,VALID,0,VALID,94.1938,VALID,0.100563,VALID,23.9548,VALID,1,VALID,0.4875,
2010-02-04, 01:28:04,VALID,1005.69,VALID,0,VALID,94.1938,VALID,0.100563,VALID,23.9742,VALID,360,VALID,0.512891,
2010-02-04, 01:29:04,VALID,1005.68,VALID,0,VALID,94.1709,VALID,0,VALID,23.9548,VALID,2,VALID,0.183594,
2010-02-04, 01:30:04,VALID,1005.66,VALID,0,VALID,94.1785,VALID,0,VALID,23.9548,VALID,2,VALID,0.339063,
2010-02-04, 01:31:04,VALID,1005.63,VALID,0,VALID,94.1556,VALID,0,VALID,23.9335,VALID,2,VALID,0.178516,
2010-02-04, 01:32:04,VALID,1005.59,VALID,0,VALID,94.1404,VALID,0.100563,VALID,23.9742,VALID,354,VALID,0.423828,
2010-02-04, 01:33:04,VALID,1005.62,VALID,0,VALID,94.1556,VALID,0,VALID,23.9937,VALID,36,VALID,0.530469,
2010-02-04, 01:34:04,VALID,1005.6,VALID,0,VALID,94.1404,VALID,0.100563,VALID,24.0132,VALID,35,VALID,0.2375,
2010-02-04, 01:35:04,VALID,1005.61,VALID,0,VALID,94.0717,VALID,0.100563,VALID,24.0132,VALID,35,VALID,0.0839844,
2010-02-04, 01:36:04,VALID,1005.62,VALID,0,VALID,94.0412,VALID,0,VALID,24.0326,VALID,35,VALID,0.280859,
2010-02-04, 01:37:04,VALID,1005.62,VALID,0,VALID,94.0031,VALID,0,VALID,24.0521,VALID,35,VALID,0.0691406,
2010-02-04, 01:38:04,VALID,1005.62,VALID,0,VALID,94.0107,VALID,0.100563,VALID,24.0716,VALID,32,VALID,0.641016,
2010-02-04, 01:39:04,VALID,1005.59,VALID,0,VALID,93.9878,VALID,0,VALID,24.1884,VALID,19,VALID,0.262109,
2010-02-04, 01:40:04,VALID,1005.59,VALID,0,VALID,93.8276,VALID,0,VALID,24.2662,VALID,19,VALID,0.424219,
2010-02-04, 01:41:04,VALID,1005.59,VALID,0,VALID,93.5377,VALID,0,VALID,24.3246,VALID,19,VALID,0.432422,
2010-02-04, 01:42:04,VALID,1005.57,VALID,0,VALID,93.1791,VALID,0,VALID,24.3636,VALID,67,VALID,0.734375,
2010-02-04, 01:43:04,VALID,1005.56,VALID,0,VALID,92.6375,VALID,0,VALID,24.4998,VALID,51,VALID,0.759766,
2010-02-04, 01:44:04,VALID,1005.55,VALID,0,VALID,91.6229,VALID,0,VALID,24.6166,VALID,342,VALID,0.446094,
2010-02-04, 01:45:04,VALID,1005.55,VALID,0,VALID,90.4022,VALID,0.100563,VALID,24.675,VALID,6,VALID,0.282422,
2010-02-04, 01:46:04,VALID,1005.58,VALID,0,VALID,89.7919,VALID,0,VALID,24.7548,VALID,8,VALID,0.677734,
2010-02-04, 01:47:04,VALID,1005.54,VALID,0,VALID,89.1587,VALID,0,VALID,24.8132,VALID,12,VALID,1.03203,
2010-02-04, 01:48:04,VALID,1005.52,VALID,0,VALID,88.3424,VALID,0.100563,VALID,24.9866,VALID,17,VALID,0.723047,
2010-02-04, 01:49:04,VALID,1005.52,VALID,0,VALID,87.8084,VALID,0,VALID,25.0839,VALID,38,VALID,0.2875,
2010-02-04, 01:50:04,VALID,1005.5,VALID,0,VALID,87.5719,VALID,0,VALID,25.1034,VALID,38,VALID,0.0324219,
2010-02-04, 01:51:04,VALID,1005.54,VALID,0,VALID,87.6406,VALID,0,VALID,25.1053,VALID,38,VALID,0.481641,
2010-02-04, 01:52:04,VALID,1005.53,VALID,0,VALID,87.6406,VALID,0,VALID,25.0644,VALID,38,VALID,0,
2010-02-04, 01:53:04,VALID,1005.53,VALID,0,VALID,87.8313,VALID,0.100563,VALID,25.045,VALID,38,VALID,0.488672,
2010-02-04, 01:54:04,VALID,1005.53,VALID,0,VALID,88.1441,VALID,0,VALID,25.006,VALID,38,VALID,0.0175781,
2010-02-04, 01:55:04,VALID,1005.5,VALID,0,VALID,88.2509,VALID,0.100563,VALID,24.9476,VALID,56,VALID,0.444141,
2010-02-04, 01:56:04,VALID,1005.53,VALID,0,VALID,88.0449,VALID,0,VALID,24.9866,VALID,50,VALID,0.374219,
2010-02-04, 01:57:04,VALID,1005.52,VALID,0,VALID,87.9686,VALID,0,VALID,25.0079,VALID,354,VALID,0.396875,
2010-02-04, 01:58:04,VALID,1005.51,VALID,0,VALID,88.0831,VALID,0.100563,VALID,24.9885,VALID,15,VALID,0.576953,
2010-02-04, 01:59:04,VALID,1005.53,VALID,0,VALID,88.0678,VALID,0,VALID,24.9476,VALID,35,VALID,0.382031,
2010-02-04, 02:00:04,VALID,1005.54,VALID,0,VALID,88.2738,VALID,0,VALID,24.969,VALID,35,VALID,0.602344,
2010-02-04, 02:01:04,VALID,1005.52,VALID,0,VALID,88.3806,VALID,0.100563,VALID,24.9476,VALID,11,VALID,0.361328,
2010-02-04, 02:02:04,VALID,1005.54,VALID,0,VALID,88.5789,VALID,0,VALID,24.93,VALID,24,VALID,0.527734,
2010-02-04, 02:03:04,VALID,1005.53,VALID,0,VALID,88.762,VALID,0,VALID,24.8716,VALID,18,VALID,0.612891,
2010-02-04, 02:04:04,VALID,1005.53,VALID,0,VALID,88.3577,VALID,0,VALID,24.8892,VALID,40,VALID,0.701563,
2010-02-04, 02:05:04,VALID,1005.53,VALID,0,VALID,88.2051,VALID,0,VALID,24.9885,VALID,21,VALID,0.775391,
2010-02-04, 02:06:04,VALID,1005.51,VALID,0,VALID,87.6635,VALID,0,VALID,24.9866,VALID,42,VALID,1.12383,
2010-02-04, 02:07:04,VALID,1005.54,VALID,0,VALID,86.7938,VALID,0,VALID,25.1832,VALID,23,VALID,1.07617,
2010-02-04, 02:08:04,VALID,1005.52,VALID,0,VALID,86.336,VALID,0,VALID,25.2786,VALID,357,VALID,0.814062,
2010-02-04, 02:09:04,VALID,1005.53,VALID,0,VALID,86.1835,VALID,0,VALID,25.3,VALID,11,VALID,1.05898,
2010-02-04, 02:10:04,VALID,1005.52,VALID,0,VALID,85.7181,VALID,0,VALID,25.2981,VALID,15,VALID,1.02813,
2010-02-04, 02:11:04,VALID,1005.51,VALID,0,VALID,85.9927,VALID,0,VALID,25.3974,VALID,16,VALID,0.463281,
2010-02-04, 02:12:04,VALID,1005.52,VALID,0,VALID,86.0919,VALID,0,VALID,25.337,VALID,16,VALID,0.278906,
2010-02-04, 02:13:04,VALID,1005.49,VALID,0,VALID,86.0843,VALID,0,VALID,25.2981,VALID,16,VALID,0.58125,
2010-02-04, 02:14:04,VALID,1005.47,VALID,0,VALID,86.481,VALID,0.100563,VALID,25.2592,VALID,15,VALID,0.524609,
2010-02-04, 02:15:04,VALID,1005.48,VALID,0,VALID,86.7785,VALID,0,VALID,25.2221,VALID,15,VALID,0.126563,
2010-02-04, 02:16:04,VALID,1005.47,VALID,0,VALID,86.7633,VALID,0.100563,VALID,25.1618,VALID,3,VALID,0.629297,
2010-02-04, 02:17:04,VALID,1005.46,VALID,0,VALID,86.9769,VALID,0,VALID,25.1442,VALID,5,VALID,0.563281,
2010-02-04, 02:18:04,VALID,1005.47,VALID,0,VALID,86.6183,VALID,0,VALID,25.1423,VALID,15,VALID,0.465234,
2010-02-04, 02:19:04,VALID,1005.47,VALID,0,VALID,86.6565,VALID,0,VALID,25.1618,VALID,15,VALID,0.519531,
2010-02-04, 02:20:04,VALID,1005.47,VALID,0,VALID,86.5115,VALID,0,VALID,25.1229,VALID,14,VALID,0.362109,
2010-02-04, 02:21:04,VALID,1005.46,VALID,0,VALID,86.4581,VALID,0,VALID,25.1813,VALID,15,VALID,0.432813,
2010-02-04, 02:22:04,VALID,1005.47,VALID,0,VALID,86.5649,VALID,0,VALID,25.1618,VALID,15,VALID,0.408984,
2010-02-04, 02:23:04,VALID,1005.42,VALID,0,VALID,86.6641,VALID,0,VALID,25.1442,VALID,15,VALID,0.521484,
2010-02-04, 02:24:04,VALID,1005.43,VALID,0,VALID,86.7938,VALID,0,VALID,25.1248,VALID,15,VALID,0.379297,
2010-02-04, 02:25:04,VALID,1005.43,VALID,0,VALID,86.6793,VALID,0,VALID,25.0839,VALID,39,VALID,0.621094,
2010-02-04, 02:26:04,VALID,1005.44,VALID,0,VALID,86.687,VALID,0,VALID,25.1229,VALID,7,VALID,0.558984,
2010-02-04, 02:27:04,VALID,1005.43,VALID,0,VALID,86.5496,VALID,0,VALID,25.1248,VALID,16,VALID,0.907812,
2010-02-04, 02:28:04,VALID,1005.41,VALID,0,VALID,86.0461,VALID,0,VALID,25.2027,VALID,19,VALID,1.78906,
2010-02-04, 02:29:04,VALID,1005.39,VALID,0,VALID,85.7944,VALID,0.100563,VALID,25.3195,VALID,13,VALID,0.529297,
2010-02-04, 02:30:04,VALID,1005.38,VALID,0,VALID,85.6266,VALID,0,VALID,25.339,VALID,11,VALID,0.665625,
2010-02-04, 02:31:04,VALID,1005.38,VALID,0,VALID,85.7486,VALID,0,VALID,25.3195,VALID,346,VALID,0.409375,
2010-02-04, 02:32:04,VALID,1005.35,VALID,0,VALID,85.8478,VALID,0,VALID,25.2592,VALID,346,VALID,0.23125,
2010-02-04, 02:33:04,VALID,1005.33,VALID,0,VALID,86.0309,VALID,0,VALID,25.2397,VALID,346,VALID,0.0347656,
2010-02-04, 02:34:04,VALID,1005.37,VALID,0,VALID,86.2826,VALID,0,VALID,25.2027,VALID,346,VALID,0.234375,
2010-02-04, 02:35:04,VALID,1005.34,VALID,0,VALID,86.5496,VALID,0.100563,VALID,25.1229,VALID,346,VALID,0.275391,
2010-02-04, 02:36:04,VALID,1005.34,VALID,0,VALID,86.7709,VALID,0,VALID,25.0644,VALID,346,VALID,0.134375,
2010-02-04, 02:37:04,VALID,1005.33,VALID,0,VALID,87.1905,VALID,0,VALID,25.0469,VALID,346,VALID,0.281641,
2010-02-04, 02:38:04,VALID,1005.34,VALID,0,VALID,87.3659,VALID,0,VALID,24.969,VALID,346,VALID,0.268359,
2010-02-04, 02:39:04,VALID,1005.32,VALID,0,VALID,87.5719,VALID,0,VALID,24.93,VALID,346,VALID,0.0453125,
2010-02-04, 02:40:04,VALID,1005.31,VALID,0,VALID,87.8466,VALID,0,VALID,24.8716,VALID,346,VALID,0.0398437,
2010-02-04, 02:41:04,VALID,1005.35,VALID,0,VALID,88.0831,VALID,0,VALID,24.8522,VALID,346,VALID,0,
2010-02-04, 02:42:04,VALID,1005.34,VALID,0,VALID,88.2661,VALID,0,VALID,24.8327,VALID,346,VALID,0.0359375,
2010-02-04, 02:43:04,VALID,1005.35,VALID,0,VALID,88.4035,VALID,0,VALID,24.7548,VALID,346,VALID,0.0609375,
2010-02-04, 02:44:04,VALID,1005.33,VALID,0,VALID,88.6018,VALID,0,VALID,24.7335,VALID,346,VALID,0,
2010-02-04, 02:45:04,VALID,1005.35,VALID,0,VALID,88.6705,VALID,0,VALID,24.7159,VALID,346,VALID,0.141406,
2010-02-04, 02:46:04,VALID,1005.33,VALID,0,VALID,88.9451,VALID,0,VALID,24.6556,VALID,346,VALID,0.282813,
2010-02-04, 02:47:04,VALID,1005.34,VALID,0,VALID,89.1816,VALID,0,VALID,24.638,VALID,346,VALID,0.282422,
2010-02-04, 02:48:04,VALID,1005.36,VALID,0,VALID,89.38,VALID,0,VALID,24.5601,VALID,346,VALID,0.380469,
2010-02-04, 02:49:04,VALID,1005.4,VALID,0,VALID,89.6546,VALID,0,VALID,24.5212,VALID,346,VALID,0.267578,
2010-02-04, 02:50:04,VALID,1005.38,VALID,0,VALID,89.8377,VALID,0,VALID,24.4804,VALID,346,VALID,0.458984,
2010-02-04, 02:51:04,VALID,1005.39,VALID,0,VALID,89.9292,VALID,0,VALID,24.5017,VALID,346,VALID,0.151953,
2010-02-04, 02:52:04,VALID,1005.4,VALID,0,VALID,90.0208,VALID,0,VALID,24.4822,VALID,346,VALID,0.303125,
2010-02-04, 02:53:04,VALID,1005.38,VALID,0,VALID,90.2191,VALID,0,VALID,24.383,VALID,346,VALID,0.330859,
2010-02-04, 02:54:04,VALID,1005.39,VALID,0,VALID,90.5319,VALID,0,VALID,24.383,VALID,346,VALID,0.536719,
2010-02-04, 02:55:04,VALID,1005.39,VALID,0,VALID,90.7837,VALID,0,VALID,24.3441,VALID,346,VALID,0.198047,
2010-02-04, 02:56:04,VALID,1005.41,VALID,0,VALID,90.921,VALID,0,VALID,24.3459,VALID,346,VALID,0.135156,
2010-02-04, 02:57:04,VALID,1005.39,VALID,0,VALID,91.0354,VALID,0,VALID,24.3265,VALID,346,VALID,0,
2010-02-04, 02:58:04,VALID,1005.38,VALID,0,VALID,91.1804,VALID,0,VALID,24.2875,VALID,346,VALID,0.0855469,
2010-02-04, 02:59:04,VALID,1005.34,VALID,0,VALID,91.1804,VALID,0,VALID,24.2875,VALID,13,VALID,0.846484,
2010-02-04, 03:00:04,VALID,1005.36,VALID,0,VALID,90.9515,VALID,0,VALID,24.3052,VALID,2,VALID,0.316016,
2010-02-04, 03:01:04,VALID,1005.35,VALID,0,VALID,90.8218,VALID,0,VALID,24.3246,VALID,2,VALID,0.203906,
2010-02-04, 03:02:04,VALID,1005.36,VALID,0,VALID,90.6921,VALID,0,VALID,24.3246,VALID,2,VALID,0.191406,
2010-02-04, 03:03:04,VALID,1005.34,VALID,0,VALID,90.6387,VALID,0.100563,VALID,24.3441,VALID,2,VALID,0.279297,
2010-02-04, 03:04:04,VALID,1005.3,VALID,0,VALID,90.4251,VALID,0,VALID,24.3228,VALID,3,VALID,0.192578,
2010-02-04, 03:05:04,VALID,1005.3,VALID,0,VALID,90.2573,VALID,0,VALID,24.3636,VALID,3,VALID,0.065625,
2010-02-04, 03:06:04,VALID,1005.28,VALID,0,VALID,90.3412,VALID,0,VALID,24.3636,VALID,3,VALID,0,
2010-02-04, 03:07:04,VALID,1005.31,VALID,0,VALID,90.3641,VALID,0,VALID,24.3441,VALID,3,VALID,0.310937,
2010-02-04, 03:08:04,VALID,1005.29,VALID,0,VALID,90.4556,VALID,0,VALID,24.3441,VALID,3,VALID,0.239844,
2010-02-04, 03:09:04,VALID,1005.33,VALID,0,VALID,90.5701,VALID,0,VALID,24.3052,VALID,3,VALID,0.00117188,
2010-02-04, 03:10:04,VALID,1005.32,VALID,0,VALID,90.6921,VALID,0,VALID,24.307,VALID,3,VALID,0.428125,
2010-02-04, 03:11:04,VALID,1005.3,VALID,0,VALID,90.6998,VALID,0,VALID,24.2662,VALID,3,VALID,0,
2010-02-04, 03:12:04,VALID,1005.32,VALID,0,VALID,90.7379,VALID,0,VALID,24.2468,VALID,3,VALID,0,
2010-02-04, 03:13:04,VALID,1005.3,VALID,0,VALID,90.8523,VALID,0,VALID,24.2662,VALID,134,VALID,0.373437,
2010-02-04, 03:14:04,VALID,1005.32,VALID,0,VALID,91.0965,VALID,0,VALID,24.3052,VALID,134,VALID,0.162891,
2010-02-04, 03:15:04,VALID,1005.31,VALID,0,VALID,91.2719,VALID,0,VALID,24.3265,VALID,134,VALID,0.25,
2010-02-04, 03:16:04,VALID,1005.31,VALID,0,VALID,91.4092,VALID,0,VALID,24.2662,VALID,134,VALID,0.514063,
2010-02-04, 03:17:04,VALID,1005.31,VALID,0,VALID,91.5313,VALID,0.100563,VALID,24.2468,VALID,134,VALID,0.102344,
2010-02-04, 03:18:04,VALID,1005.31,VALID,0,VALID,91.6763,VALID,0.100563,VALID,24.2273,VALID,134,VALID,0.1125,
2010-02-04, 03:19:04,VALID,1005.29,VALID,0,VALID,91.7373,VALID,0.100563,VALID,24.2078,VALID,134,VALID,0,
2010-02-04, 03:20:04,VALID,1005.33,VALID,0,VALID,91.7602,VALID,0,VALID,24.1689,VALID,134,VALID,0.110156,
2010-02-04, 03:21:04,VALID,1005.33,VALID,0,VALID,91.7831,VALID,0,VALID,24.1494,VALID,134,VALID,0,
2010-02-04, 03:22:04,VALID,1005.36,VALID,0,VALID,91.7983,VALID,0,VALID,24.13,VALID,134,VALID,0,
2010-02-04, 03:23:04,VALID,1005.39,VALID,0,VALID,91.8441,VALID,0.100563,VALID,24.1105,VALID,134,VALID,0.0671875,
2010-02-04, 03:24:04,VALID,1005.38,VALID,0,VALID,91.9128,VALID,0,VALID,24.091,VALID,134,VALID,0.366016,
2010-02-04, 03:25:04,VALID,1005.43,VALID,0,VALID,91.9585,VALID,0,VALID,24.0521,VALID,111,VALID,0.485156,
2010-02-04, 03:26:04,VALID,1005.45,VALID,0,VALID,92.0196,VALID,0,VALID,24.0132,VALID,49,VALID,0.5875,
2010-02-04, 03:27:04,VALID,1005.45,VALID,0,VALID,91.989,VALID,0,VALID,23.914,VALID,25,VALID,0.698047,
2010-02-04, 03:28:04,VALID,1005.46,VALID,0,VALID,92.1492,VALID,0,VALID,23.8769,VALID,25,VALID,0.285937,
2010-02-04, 03:29:04,VALID,1005.48,VALID,0,VALID,92.3476,VALID,0,VALID,23.8185,VALID,25,VALID,0.500391,
2010-02-04, 03:30:04,VALID,1005.48,VALID,0,VALID,92.5154,VALID,0,VALID,23.7601,VALID,25,VALID,0.617188,
2010-02-04, 03:31:04,VALID,1005.47,VALID,0,VALID,92.7138,VALID,0,VALID,23.7212,VALID,25,VALID,0.398828,
2010-02-04, 03:32:04,VALID,1005.48,VALID,0,VALID,92.8969,VALID,0.100563,VALID,23.7017,VALID,25,VALID,0.433594,
2010-02-04, 03:33:04,VALID,1005.46,VALID,0,VALID,93.0723,VALID,0,VALID,23.6823,VALID,25,VALID,0.342969,
2010-02-04, 03:34:04,VALID,1005.47,VALID,0,VALID,93.2325,VALID,0,VALID,23.6628,VALID,25,VALID,0.386328,
2010-02-04, 03:35:04,VALID,1005.47,VALID,0,VALID,93.3394,VALID,0.100563,VALID,23.6434,VALID,25,VALID,0.280469,
2010-02-04, 03:36:04,VALID,1005.47,VALID,0,VALID,93.469,VALID,0.100563,VALID,23.6239,VALID,25,VALID,0.279297,
2010-02-04, 03:37:04,VALID,1005.51,VALID,0,VALID,93.614,VALID,0.100563,VALID,23.6239,VALID,25,VALID,0.19375,
2010-02-04, 03:38:04,VALID,1005.48,VALID,0,VALID,93.7589,VALID,0,VALID,23.6239,VALID,25,VALID,0.190234,
2010-02-04, 03:39:04,VALID,1005.51,VALID,0,VALID,93.8505,VALID,0,VALID,23.6434,VALID,25,VALID,0.230469,
2010-02-04, 03:40:04,VALID,1005.5,VALID,0,VALID,93.8505,VALID,0.100563,VALID,23.6434,VALID,25,VALID,0.137891,
2010-02-04, 03:41:04,VALID,1005.51,VALID,0,VALID,93.8657,VALID,0.100563,VALID,23.6239,VALID,25,VALID,0.247656,
2010-02-04, 03:42:04,VALID,1005.49,VALID,0,VALID,93.8276,VALID,0,VALID,23.5832,VALID,25,VALID,0.418359,
2010-02-04, 03:43:04,VALID,1005.51,VALID,0,VALID,93.82,VALID,0,VALID,23.5868,VALID,25,VALID,0.610937,
2010-02-04, 03:44:04,VALID,1005.5,VALID,0,VALID,93.82,VALID,0,VALID,23.5266,VALID,25,VALID,0.417578,
2010-02-04, 03:45:04,VALID,1005.52,VALID,0,VALID,93.8734,VALID,0,VALID,23.5284,VALID,25,VALID,0.357422,
2010-02-04, 03:46:04,VALID,1005.55,VALID,0,VALID,93.9268,VALID,0,VALID,23.5089,VALID,25,VALID,0.528516,